TimeCST,TemperatureF,Dew PointF,Humidity,Sea Level PressureIn,VisibilityMPH,Wind Direction,Wind SpeedMPH,Gust SpeedMPH,PrecipitationIn,Events,Conditions,WindDirDegrees,DateUTC
12:15 AM,12.2,1.4,62,30.14,10.0,WNW,5.8,-,N/A,,Clear,300,2013-02-15 06:15:00
12:35 AM,12.2,1.4,62,30.14,10.0,WNW,5.8,-,N/A,,Scattered Clouds,290,2013-02-15 06:35:00
12:55 AM,10.4,1.4,67,30.14,10.0,WNW,5.8,-,N/A,,Overcast,290,2013-02-15 06:55:00
1:15 AM,10.4,1.4,67,30.14,10.0,West,5.8,-,N/A,,Mostly Cloudy,280,2013-02-15 07:15:00
1:35 AM,8.6,1.4,73,30.14,10.0,WNW,8.1,-,N/A,,Scattered Clouds,290,2013-02-15 07:35:00
1:55 AM,10.4,1.4,67,30.14,10.0,WNW,10.4,-,N/A,,Scattered Clouds,290,2013-02-15 07:55:00
2:15 AM,10.4,1.4,67,30.14,10.0,WNW,9.2,-,N/A,,Scattered Clouds,290,2013-02-15 08:15:00
2:35 AM,10.4,1.4,67,30.14,10.0,WNW,5.8,-,N/A,,Mostly Cloudy,290,2013-02-15 08:35:00
2:55 AM,8.6,-0.4,67,30.15,10.0,West,3.5,-,N/A,,Overcast,280,2013-02-15 08:55:00
3:15 AM,8.6,1.4,73,30.15,10.0,West,4.6,-,N/A,,Overcast,270,2013-02-15 09:15:00
3:35 AM,6.8,1.4,79,30.15,10.0,West,3.5,-,N/A,,Mostly Cloudy,270,2013-02-15 09:35:00
3:55 AM,5.0,-0.4,78,30.16,10.0,West,3.5,-,N/A,,Mostly Cloudy,260,2013-02-15 09:55:00
4:15 AM,5.0,-0.4,78,30.16,10.0,WSW,3.5,-,N/A,,Mostly Cloudy,250,2013-02-15 10:15:00
4:35 AM,5.0,1.4,85,30.17,10.0,West,6.9,-,N/A,,Overcast,270,2013-02-15 10:35:00
4:55 AM,8.6,1.4,73,30.17,10.0,West,6.9,-,N/A,,Overcast,280,2013-02-15 10:55:00
5:15 AM,8.6,3.2,79,30.17,10.0,West,8.1,-,N/A,,Overcast,280,2013-02-15 11:15:00
5:35 AM,8.6,1.4,73,30.18,10.0,WNW,8.1,-,N/A,,Mostly Cloudy,290,2013-02-15 11:35:00
5:55 AM,5.0,-0.4,78,30.18,10.0,WNW,5.8,-,N/A,,Scattered Clouds,290,2013-02-15 11:55:00
6:15 AM,3.2,-0.4,85,30.19,10.0,WNW,4.6,-,N/A,,Scattered Clouds,290,2013-02-15 12:15:00
6:35 AM,3.2,-2.2,78,30.19,10.0,WNW,4.6,-,N/A,,Clear,300,2013-02-15 12:35:00
6:55 AM,5.0,-0.4,78,30.20,10.0,NW,6.9,-,N/A,,Clear,310,2013-02-15 12:55:00
7:15 AM,3.2,-0.4,85,30.21,10.0,NW,6.9,-,N/A,,Clear,310,2013-02-15 13:15:00
7:35 AM,3.2,-4.0,72,30.22,10.0,NW,5.8,-,N/A,,Clear,320,2013-02-15 13:35:00
7:55 AM,3.2,-0.4,85,30.22,10.0,NW,9.2,-,N/A,,Clear,320,2013-02-15 13:55:00
8:15 AM,3.2,-0.4,85,30.23,10.0,NW,6.9,-,N/A,,Clear,310,2013-02-15 14:15:00
8:35 AM,5.0,-0.4,78,30.24,10.0,NW,11.5,-,N/A,,Clear,310,2013-02-15 14:35:00
8:55 AM,5.0,-0.4,78,30.24,10.0,NW,10.4,-,N/A,,Clear,320,2013-02-15 14:55:00
9:15 AM,5.0,-0.4,78,30.24,10.0,NNW,9.2,-,N/A,,Clear,330,2013-02-15 15:15:00
9:35 AM,8.6,1.4,73,30.25,10.0,NNW,13.8,-,N/A,,Clear,330,2013-02-15 15:35:00
9:55 AM,8.6,1.4,73,30.25,10.0,NW,11.5,-,N/A,,Clear,320,2013-02-15 15:55:00
10:15 AM,8.6,1.4,73,30.25,10.0,NNW,13.8,-,N/A,,Clear,330,2013-02-15 16:15:00
10:35 AM,8.6,1.4,73,30.25,10.0,NW,10.4,-,N/A,,Clear,320,2013-02-15 16:35:00
10:55 AM,10.4,1.4,67,30.26,10.0,NNW,11.5,-,N/A,,Clear,330,2013-02-15 16:55:00
11:15 AM,10.4,1.4,67,30.26,10.0,NW,9.2,-,N/A,,Clear,310,2013-02-15 17:15:00
11:55 AM,12.2,1.4,62,30.25,10.0,NW,10.4,-,N/A,,Clear,310,2013-02-15 17:55:00
12:15 PM,12.2,1.4,62,30.25,10.0,NW,11.5,-,N/A,,Clear,310,2013-02-15 18:15:00
12:35 PM,12.2,1.4,62,30.25,10.0,WNW,11.5,-,N/A,,Clear,300,2013-02-15 18:35:00
12:55 PM,12.2,1.4,62,30.24,10.0,WNW,10.4,-,N/A,,Clear,300,2013-02-15 18:55:00
1:15 PM,14.0,1.4,57,30.24,10.0,NW,10.4,-,N/A,,Clear,310,2013-02-15 19:15:00
1:35 PM,14.0,1.4,57,30.24,10.0,NW,9.2,-,N/A,,Clear,320,2013-02-15 19:35:00
1:55 PM,14.0,1.4,57,30.23,10.0,NW,16.1,-,N/A,,Clear,310,2013-02-15 19:55:00
2:15 PM,14.0,1.4,57,30.24,10.0,NW,15.0,18.4,N/A,,Clear,310,2013-02-15 20:15:00
2:35 PM,14.0,1.4,57,30.24,10.0,NW,9.2,-,N/A,,Clear,320,2013-02-15 20:35:00
2:55 PM,15.8,1.4,53,30.24,10.0,WNW,10.4,-,N/A,,Clear,300,2013-02-15 20:55:00
3:15 PM,15.8,1.4,53,30.24,10.0,NW,12.7,-,N/A,,Clear,320,2013-02-15 21:15:00
3:35 PM,15.8,1.4,53,30.24,10.0,NW,11.5,-,N/A,,Clear,320,2013-02-15 21:35:00
3:55 PM,14.0,1.4,57,30.24,10.0,NW,11.5,17.3,N/A,,Clear,320,2013-02-15 21:55:00
4:15 PM,14.0,1.4,57,30.24,10.0,NW,13.8,-,N/A,,Clear,320,2013-02-15 22:15:00
4:35 PM,14.0,1.4,57,30.25,10.0,NW,12.7,-,N/A,,Clear,310,2013-02-15 22:35:00
4:55 PM,14.0,1.4,57,30.25,10.0,NW,8.1,-,N/A,,Clear,320,2013-02-15 22:55:00
5:15 PM,14.0,-0.4,53,30.25,10.0,NW,10.4,-,N/A,,Clear,310,2013-02-15 23:15:00
5:35 PM,12.2,-0.4,57,30.25,10.0,NW,9.2,-,N/A,,Clear,310,2013-02-15 23:35:00
5:55 PM,12.2,-0.4,57,30.25,10.0,WNW,5.8,-,N/A,,Clear,300,2013-02-15 23:55:00
6:15 PM,10.4,-0.4,62,30.25,10.0,West,5.8,-,N/A,,Scattered Clouds,280,2013-02-16 00:15:00
6:35 PM,10.4,-0.4,62,30.25,10.0,West,6.9,-,N/A,,Mostly Cloudy,280,2013-02-16 00:35:00
6:55 PM,8.6,-2.2,62,30.25,10.0,WSW,5.8,-,N/A,,Scattered Clouds,250,2013-02-16 00:55:00
7:15 PM,5.0,-4.0,66,30.25,10.0,WSW,4.6,-,N/A,,Mostly Cloudy,250,2013-02-16 01:15:00
7:35 PM,8.6,-0.4,67,30.24,10.0,West,6.9,-,N/A,,Mostly Cloudy,260,2013-02-16 01:35:00
7:55 PM,8.6,-0.4,67,30.24,10.0,WSW,6.9,-,N/A,,Overcast,250,2013-02-16 01:55:00
8:15 PM,8.6,-0.4,67,30.24,10.0,West,6.9,-,N/A,,Mostly Cloudy,260,2013-02-16 02:15:00
8:35 PM,8.6,-0.4,67,30.23,10.0,WSW,6.9,-,N/A,,Scattered Clouds,250,2013-02-16 02:35:00
8:55 PM,8.6,-0.4,67,30.23,10.0,WSW,8.1,-,N/A,,Mostly Cloudy,250,2013-02-16 02:55:00
9:15 PM,8.6,-0.4,67,30.23,10.0,West,9.2,-,N/A,,Mostly Cloudy,260,2013-02-16 03:15:00
9:35 PM,8.6,1.4,73,30.23,10.0,West,8.1,-,N/A,,Mostly Cloudy,260,2013-02-16 03:35:00
9:55 PM,8.6,1.4,73,30.22,10.0,West,8.1,-,N/A,,Overcast,270,2013-02-16 03:55:00
10:15 PM,6.8,-0.4,72,30.23,10.0,West,8.1,-,N/A,,Mostly Cloudy,280,2013-02-16 04:15:00
10:35 PM,5.0,-0.4,78,30.23,10.0,WNW,6.9,-,N/A,,Scattered Clouds,290,2013-02-16 04:35:00
10:55 PM,5.0,-0.4,78,30.23,10.0,WNW,5.8,-,N/A,,Clear,300,2013-02-16 04:55:00
11:15 PM,5.0,-0.4,78,30.22,10.0,WNW,6.9,-,N/A,,Clear,300,2013-02-16 05:15:00
11:35 PM,5.0,-0.4,78,30.22,10.0,WNW,6.9,-,N/A,,Clear,300,2013-02-16 05:35:00
11:55 PM,5.0,-0.4,78,30.21,10.0,NW,6.9,-,N/A,,Clear,310,2013-02-16 05:55:00